Location: Unspecified
(45.3999°N, 88.1269°W)
Time: 19:27:18
(UTC-05:00)

Cosmos 2058 - Visible Passes

Search period start: 19 August 2017 00:00
Search period end: 29 August 2017 00:00
Orbit: 562 x 586 km, 82.5° (Epoch: 19 August)

Date Brightness Start Highest point End Pass type
(mag) Time Alt. Az. Time Alt. Az. Time Alt. Az.
19 Aug 3.8 02:36:47 10° N 02:40:03 47° NE 02:40:03 47° NE visible
19 Aug 5.1 04:15:26 10° WNW 04:16:15 12° WNW 04:16:15 12° WNW visible
20 Aug 3.9 02:40:04 10° N 02:42:59 44° N 02:42:59 44° N visible
21 Aug 4.2 02:43:24 10° N 02:45:56 36° NNW 02:45:56 36° NNW visible
22 Aug 5.7 01:11:36 10° NE 01:12:43 12° NE 01:12:43 12° NE visible
22 Aug 4.5 02:46:47 10° NNW 02:48:55 29° NNW 02:48:55 29° NNW visible
23 Aug 5.6 01:14:18 10° NNE 01:15:43 15° NE 01:15:43 15° NE visible
23 Aug 4.8 02:50:13 10° NNW 02:51:55 23° NNW 02:51:55 23° NNW visible
24 Aug 5.5 01:17:15 10° NNE 01:18:45 17° NE 01:18:45 17° NE visible
24 Aug 5.1 02:53:42 10° NNW 02:54:57 18° NW 02:54:57 18° NW visible
25 Aug 5.5 01:20:18 10° NNE 01:21:47 18° NNE 01:21:47 18° NNE visible
25 Aug 5.4 02:57:15 10° NNW 02:58:00 14° NW 02:58:00 14° NW visible
26 Aug 5.5 01:23:26 10° N 01:24:51 19° NNE 01:24:51 19° NNE visible
26 Aug 5.6 03:00:53 10° NW 03:01:03 11° NW 03:01:03 11° NW visible
27 Aug 5.5 01:26:38 10° N 01:27:56 19° N 01:27:56 19° N visible
28 Aug 5.6 01:29:53 10° N 01:31:02 18° N 01:31:02 18° N visible
